THORAD DELTA 1 DEB, 42614

Orbit data source: Space-Track

THORAD DELTA 1 DEB, 42614 is space debris in SSO originally from a launch on Fri, 15 Nov 1974 UTC launched from the Air Force Western Test Range (AFWTR). Debris objects in space refer to the collection of defunct objects orbiting the Earth. Examples of debris include non-operational satellites, rocket bodies, and fragments generated from explosions, collisions, or faulty payload assembly.

Loading next visibility...
Identifier
42614, 1974-089GF
Orbit
SSO
Country
Flag of USUS
Related business
Manufacturer
Unknown
Mission
Spacecraft
Bus & Motor
Unknown
Mass
Unknown
Launch date (UTC)
1974-11-15 (52 years ago)
Launch vehicle
Unknown
Launch site
Air Force Western Test Range (AFWTR)
Object type
Payload
Rocket body
Debris
Shape & HBR
Unknown shape, 0.1 m
Radar Cross Section
Small (<0.1 m²)

Expand to show TLE details & history
Last TLE update: 4 days ago

TLE from 4 days ago
0 THORAD DELTA 1 DEB
1 42614U 74089GF  26169.68921755  .00000360  00000-0  23367-2 0  9994
2 42614 101.8877 329.7150 0041966 159.4131 220.1682 12.59899701536172
Epoch: 2026-06-18T16:32Z
TLE epoch observation values (Epoch: 2026-06-18T16:32:28.396Z)
Latitude
18.84247°
Longitude
170.5685°
Altitude
1,450.54 km
Speed
7.127 km/s
True Right ascension
21h 42m 27s
True Declination
18° 44' 49"
Sunlit
Object was in daylight at epoch
Visualization orbit readout
Latitude
Unknown
Longitude
Unknown
Altitude
Unknown
Speed
Unknown
Apparent Right ascension
Unknown
Apparent Declination
Unknown
Sunlit
N/A
Visualization observer readout
Local Sidereal Time
21:50:08
Azimuth
Unknown
Elevation
Unknown
Doppler factor
Unknown
Orbital elements
Apogee altitude
1,453.63 km
Perigee altitude
1,388.171 km
Semi-major axis
7,799.037 km
Eccentricity
0.0042
Inclination
101.8877°
RAAN
329.715°
Arg. of periapsis
159.4131°
True anomaly
219.85925°
Mean anomaly
220.1682°
Eccentric anomaly
220.0136°
Mean motion
3.15124 °/min
Orbital period
114.24 mins
BSTAR
0.0023367
Loading maneuver chart data...
Computing Atmospheric mass density...

Documentation

Showing up to 5 results
|